Date String (YYYY-MM-DD hh:mm:ss) UTC,Instrument flags,absolute air pressure of the measurement (hPa),sample flow rate (lpm),inlet stack bypass flow (lpm),air temperature of the measurement (°C),ambient temperature measured by the external sensor (°C),aerosol sample conditioner tube jacket temperature (°C),OPC LED temperature (°C),internal box temperature (°C),relative humidity of the measurement (%),span deviation,mass concentration of particles derived from Lorenz-Mie calculation of OPC scattering (μg/m³),mass concentration of particles derived from Lorenz-Mie calculation of OPC scattering (μg/m³),mass concentration of particles derived from Lorenz-Mie calculation of OPC scattering (μg/m³)
DateTimeUTC,F1_M11,P_M11,Q1_M11,Q2_M11,T1_M11,T2_M11,T3_M11,T4_M11,T5_M11,U1_M11,ZSPAN_M11,X0_M11,X2_M11,X1_M11
2024-02-24 23:00:00,SystemResetWarning,0824.5,5.01,000.00,022.8,022.1,000.0,031.0,024.5,05.9,0000.0,0013.60,0003.13,0001.06
2024-02-24 23:01:00,SystemResetWarning,0824.3,5.00,000.00,022.8,022.1,000.0,031.0,024.5,06.0,0000.0,0014.36,0003.15,0001.07
2024-02-24 23:02:00,SystemResetWarning,0824.2,4.99,000.00,022.8,022.1,000.0,031.0,024.5,05.8,0000.0,0014.35,0003.18,0001.07
2024-02-24 23:03:00,SystemResetWarning,0824.2,4.99,000.00,022.8,022.1,000.0,031.0,024.6,05.8,0000.0,0012.93,0003.17,0001.06
2024-02-24 23:04:00,SystemResetWarning,0824.3,5.00,000.00,022.8,022.1,000.0,031.0,024.5,05.9,0000.0,0012.64,0003.19,0001.04
2024-02-24 23:05:00,SystemResetWarning,0824.3,5.00,000.00,022.8,022.1,000.0,031.0,024.6,05.9,0000.0,0011.86,0003.20,0001.04
2024-02-24 23:06:00,SystemResetWarning,0824.3,5.00,000.00,022.8,022.1,000.0,031.1,024.6,05.8,0000.0,0011.58,0003.19,0001.03
2024-02-24 23:07:00,SystemResetWarning,0824.4,5.01,000.00,022.8,022.1,000.0,031.1,024.6,06.0,0000.0,0011.61,0003.23,0001.04
2024-02-24 23:08:00,SystemResetWarning,0824.4,5.00,000.00,022.8,022.1,000.0,031.1,024.6,05.9,0000.0,0010.96,0003.23,0001.04
2024-02-24 23:09:00,SystemResetWarning,0824.3,4.99,000.00,022.8,022.1,000.0,031.1,024.5,05.9,0000.0,0012.00,0003.29,0001.04
2024-02-24 23:10:00,SystemResetWarning,0824.1,4.99,000.00,022.8,022.1,000.0,031.1,024.6,05.9,0000.0,0012.04,0003.28,0001.04
2024-02-24 23:11:00,SystemResetWarning,0824.2,5.01,000.00,022.8,022.1,000.0,031.1,024.6,06.0,0000.0,0011.37,0003.28,0001.05
2024-02-24 23:12:00,SystemResetWarning,0824.0,5.01,000.00,022.8,022.1,000.0,031.1,024.6,06.0,0000.0,0010.77,0003.30,0001.05
2024-02-24 23:13:00,SystemResetWarning,0824.2,5.00,000.00,022.8,022.1,000.0,031.1,024.6,06.0,0000.0,0010.91,0003.27,0001.05
2024-02-24 23:14:00,SystemResetWarning,0824.0,4.99,000.00,022.8,022.0,000.0,031.1,024.5,06.0,0000.0,0011.67,0003.25,0001.05
2024-02-24 23:15:00,SystemResetWarning,0823.9,5.00,000.00,022.8,022.0,000.0,031.1,024.5,05.9,0000.0,0011.96,0003.20,0001.05
2024-02-24 23:16:00,SystemResetWarning,0824.1,5.00,000.00,022.8,022.1,000.0,031.1,024.5,05.9,0000.0,0012.00,0003.17,0001.05
2024-02-24 23:17:00,SystemResetWarning,0824.3,5.01,000.00,022.8,022.1,000.0,031.1,024.6,05.7,0000.0,0012.36,0003.25,0001.06
2024-02-24 23:18:00,SystemResetWarning,0824.2,5.01,000.00,022.8,022.1,000.0,031.1,024.6,06.1,0000.0,0013.09,0003.29,0001.07
2024-02-24 23:19:00,SystemResetWarning,0824.1,4.99,000.00,022.8,022.1,000.0,031.1,024.6,06.1,0000.0,0013.48,0003.30,0001.06
2024-02-24 23:20:00,SystemResetWarning,0824.1,5.00,000.00,022.9,022.1,000.0,031.1,024.6,05.9,0000.0,0011.96,0003.26,0001.06
2024-02-24 23:21:00,SystemResetWarning,0824.2,5.01,000.00,022.8,022.1,000.0,031.1,024.6,05.9,0000.0,0012.77,0003.27,0001.05
2024-02-24 23:22:00,SystemResetWarning,0823.9,5.00,000.00,022.8,022.1,000.0,031.1,024.6,05.8,0000.0,0014.28,0003.25,0001.05
2024-02-24 23:23:00,SystemResetWarning,0824.1,5.00,000.00,022.8,022.1,000.0,031.1,024.6,05.7,0000.0,0014.12,0003.22,0001.04
2024-02-24 23:24:00,SystemResetWarning,0824.0,5.00,000.00,022.8,022.1,000.0,031.1,024.6,05.8,0000.0,0014.53,0003.23,0001.04
2024-02-24 23:25:00,SystemResetWarning,0824.2,4.99,000.00,022.8,022.0,000.0,031.1,024.6,05.9,0000.0,0013.80,0003.22,0001.05
2024-02-24 23:26:00,SystemResetWarning,0824.1,5.00,000.00,022.8,022.0,000.0,031.1,024.6,06.0,0000.0,0013.16,0003.26,0001.05
2024-02-24 23:27:00,SystemResetWarning,0824.0,4.99,000.00,022.8,022.0,000.0,031.1,024.5,06.0,0000.0,0013.03,0003.24,0001.04
2024-02-24 23:28:00,SystemResetWarning,0824.1,5.00,000.00,022.8,022.0,000.0,031.1,024.5,06.2,0000.0,0012.61,0003.19,0001.04
2024-02-24 23:29:00,SystemResetWarning,0824.0,5.01,000.00,022.8,022.0,000.0,031.1,024.6,06.2,0000.0,0012.39,0003.15,0001.03
2024-02-24 23:30:00,SystemResetWarning,0824.0,5.01,000.00,022.8,022.0,000.0,031.1,024.6,05.8,0000.0,0012.78,0003.19,0001.04
2024-02-24 23:31:00,SystemResetWarning,0824.0,5.00,000.00,022.8,022.0,000.0,031.1,024.5,05.9,0000.0,0014.29,0003.33,0001.06
2024-02-24 23:32:00,SystemResetWarning,0823.9,4.99,000.00,022.8,022.0,000.0,031.1,024.5,06.0,0000.0,0013.62,0003.34,0001.07
2024-02-24 23:33:00,SystemResetWarning,0823.9,5.00,000.00,022.8,022.0,000.0,031.1,024.5,05.9,0000.0,0012.04,0003.36,0001.06
2024-02-24 23:34:00,SystemResetWarning,0823.9,5.00,000.00,022.8,022.0,000.0,031.1,024.5,06.1,0000.0,0012.64,0003.40,0001.06
2024-02-24 23:35:00,SystemResetWarning,0823.8,5.00,000.00,022.8,022.0,000.0,031.1,024.5,06.1,0000.0,0012.99,0003.42,0001.06
2024-02-24 23:36:00,SystemResetWarning,0824.0,5.00,000.00,022.8,022.0,000.0,031.1,024.5,06.0,0000.0,0012.95,0003.43,0001.06
2024-02-24 23:37:00,SystemResetWarning,0823.9,5.00,000.00,022.8,022.0,000.0,031.1,024.5,06.1,0000.0,0013.29,0003.43,0001.06
2024-02-24 23:38:00,SystemResetWarning,0823.8,5.00,000.00,022.8,022.0,000.0,031.1,024.5,06.1,0000.0,0013.44,0003.45,0001.06
2024-02-24 23:39:00,SystemResetWarning,0823.8,5.01,000.00,022.8,022.0,000.0,031.1,024.4,06.1,0000.0,0014.38,0003.44,0001.04
2024-02-24 23:40:00,SystemResetWarning,0824.0,5.00,000.00,022.8,022.0,000.0,031.1,024.4,06.2,0000.0,0014.49,0003.41,0001.04
2024-02-24 23:41:00,SystemResetWarning,0823.8,5.00,000.00,022.8,022.0,000.0,031.1,024.5,06.1,0000.0,0013.88,0003.41,0001.04
2024-02-24 23:42:00,SystemResetWarning,0823.9,5.00,000.00,022.8,021.9,000.0,031.1,024.4,06.0,0000.0,0012.29,0003.25,0001.03
2024-02-24 23:43:00,SystemResetWarning,0823.9,5.00,000.00,022.8,021.9,000.0,031.0,024.5,06.0,0000.0,0012.06,0003.22,0001.03
2024-02-24 23:44:00,SystemResetWarning,0823.7,5.00,000.00,022.8,021.9,000.0,031.0,024.5,06.0,0000.0,0012.19,0003.21,0001.03
2024-02-24 23:45:00,SystemResetWarning,0823.8,5.01,000.00,022.8,021.9,000.0,031.0,024.4,05.9,0000.0,0011.83,0003.18,0001.04
2024-02-24 23:46:00,SystemResetWarning,0823.7,5.01,000.00,022.7,021.9,000.0,031.0,024.4,05.8,0000.0,0011.81,0003.15,0001.04
2024-02-24 23:47:00,SystemResetWarning,0823.8,5.00,000.00,022.7,021.9,000.0,031.0,024.4,05.8,0000.0,0012.98,0003.16,0001.05
2024-02-24 23:48:00,SystemResetWarning,0823.9,5.00,000.00,022.7,021.9,000.0,031.0,024.4,05.7,0000.0,0012.97,0003.21,0001.05
2024-02-24 23:49:00,SystemResetWarning,0823.9,5.00,000.00,022.7,021.9,000.0,031.0,024.4,05.8,0000.0,0013.54,0003.19,0001.04
2024-02-24 23:50:00,SystemResetWarning,0823.8,5.01,000.00,022.7,021.9,000.0,031.0,024.4,05.8,0000.0,0012.74,0003.19,0001.06
2024-02-24 23:51:00,SystemResetWarning,0823.9,5.01,000.00,022.7,021.9,000.0,031.0,024.4,06.0,0000.0,0012.75,0003.17,0001.06
2024-02-24 23:52:00,SystemResetWarning,0823.9,5.00,000.00,022.7,021.9,000.0,031.0,024.3,06.0,0000.0,0013.16,0003.17,0001.06
2024-02-24 23:53:00,SystemResetWarning,0824.0,5.00,000.00,022.7,021.8,000.0,031.0,024.3,06.1,0000.0,0013.10,0003.17,0001.06
2024-02-24 23:54:00,SystemResetWarning,0823.9,4.99,000.00,022.7,021.8,000.0,031.0,024.3,06.1,0000.0,0014.10,0003.18,0001.05
2024-02-24 23:55:00,SystemResetWarning,0824.0,4.99,000.00,022.7,021.8,000.0,031.0,024.3,06.0,0000.0,0015.48,0003.19,0001.05
2024-02-24 23:56:00,SystemResetWarning,0824.0,4.99,000.00,022.7,021.8,000.0,031.0,024.3,06.1,0000.0,0015.63,0003.21,0001.05
2024-02-24 23:57:00,SystemResetWarning,0824.0,5.00,000.00,022.7,021.8,000.0,031.0,024.3,05.9,0000.0,0018.73,0003.39,0001.07
2024-02-24 23:58:00,SystemResetWarning,0824.1,5.01,000.00,022.7,021.8,000.0,031.0,024.3,05.8,0000.0,0017.64,0003.42,0001.07
2024-02-24 23:59:00,SystemResetWarning,0824.1,5.01,000.00,022.7,021.8,000.0,031.0,024.3,06.0,0000.0,0017.81,0003.39,0001.07
